This is the latest recevied weather packets stored in our database for station/object KC9DRE. If no packets are shown the sender has not sent any weather packets the latest 1 day(s).
| Time | Temp. | Humidity | Pressure | Rain* | Wind** | Luminosity | Snow |
|---|---|---|---|---|---|---|---|
| 1777994020 | 17.78° C | 70% | 1009.7 hPa | 0 mm | 0.45 m/s, 290° | 180 W/m² | - |
| 1777993717 | 17.78° C | 71% | 1009.8 hPa | 0 mm | 0.45 m/s, 207° | 174 W/m² | - |
| 1777993415 | 17.78° C | 71% | 1009.8 hPa | 0 mm | 0 m/s | 91 W/m² | - |
| 1777993115 | 17.78° C | 71% | 1009.8 hPa | 0 mm | 0.45 m/s, 246° | 106 W/m² | - |
| 1777992813 | 17.78° C | 71% | 1009.7 hPa | 0 mm | 0 m/s | 123 W/m² | - |
| 1777992510 | 17.78° C | 70% | 1009.7 hPa | 0 mm | 1.34 m/s, 260° | 115 W/m² | - |
| 1777992209 | 17.78° C | 72% | 1009.8 hPa | 0 mm | 0 m/s | 113 W/m² | - |
| 1777991905 | 17.78° C | 73% | 1009.7 hPa | 0 mm | 1.34 m/s, 251° | 159 W/m² | - |
| 1777991603 | 17.22° C | 74% | 1009.9 hPa | 0 mm | 0 m/s | 190 W/m² | - |
| 1777991300 | 17.78° C | 73% | 1009.6 hPa | 0 mm | 0.45 m/s, 266° | 114 W/m² | - |
| 1777990997 | 17.78° C | 75% | 1009.5 hPa | 0 mm | 0.45 m/s, 251° | 151 W/m² | - |
| 1777990695 | 17.78° C | 76% | 1009.6 hPa | 0 mm | 0.45 m/s, 259° | 207 W/m² | - |
| 1777990392 | 17.22° C | 76% | 1009.5 hPa | 0 mm | 0.45 m/s, 242° | 207 W/m² | - |
| 1777990088 | 17.22° C | 77% | 1009.5 hPa | 0 mm | 0 m/s | 220 W/m² | - |
| 1777989785 | 16.67° C | 78% | 1009.7 hPa | 0 mm | 0.89 m/s, 248° | 202 W/m² | - |
| 1777989482 | 16.67° C | 79% | 1009.7 hPa | 0 mm | 0.89 m/s, 175° | 163 W/m² | - |
| 1777989178 | 16.67° C | 79% | 1009.5 hPa | 0 mm | 0.45 m/s, 237° | 161 W/m² | - |
| 1777988874 | 16.67° C | 80% | 1009.4 hPa | 0 mm | 0.45 m/s, 284° | 156 W/m² | - |
| 1777988572 | 16.67° C | 81% | 1009.6 hPa | 0 mm | 0 m/s | 172 W/m² | - |
| 1777988268 | 16.11° C | 82% | 1009.6 hPa | 0 mm | 0.45 m/s, 257° | 171 W/m² | - |
| 1777987964 | 16.11° C | 83% | 1009.6 hPa | 0 mm | 0 m/s | 144 W/m² | - |
| 1777987660 | 16.11° C | 83% | 1009.6 hPa | 0 mm | 0.89 m/s, 63° | 132 W/m² | - |
| 1777987357 | 15.56° C | 84% | 1009.6 hPa | 0 mm | 0 m/s | 136 W/m² | - |
| 1777987055 | 15.56° C | 85% | 1009.6 hPa | 0 mm | 0 m/s | 128 W/m² | - |
| 1777986752 | 15.56° C | 85% | 1009.7 hPa | 0 mm | 0 m/s | 134 W/m² | - |
* Rain latest hour (hover to see other rain measurements)
** Current wind speed in m/s (hover to see current wind gust speed)